THOR ABLESTAR DEB, 351

Orbit data source: Space-Track

THOR ABLESTAR DEB, 351 is space debris in LEO originally from a launch on Thu, 29 Jun 1961 UTC launched from the Air Force Eastern Test Range (AFETR). Debris objects in space refer to the collection of defunct objects orbiting the Earth. Examples of debris include non-operational satellites, rocket bodies, and fragments generated from explosions, collisions, or faulty payload assembly.

Loading next visibility...
Identifier
351, 1961-015DR
Orbit
LEO
Country
Flag of USUS
Related business
Manufacturer
Unknown
Mission
Spacecraft
Bus & Motor
Unknown
Mass
Unknown
Launch date (UTC)
1961-06-29 (64 years ago)
Launch vehicle
Unknown
Launch site
Air Force Eastern Test Range (AFETR)
Object type
Payload
Rocket body
Debris
Shape & HBR
Unknown shape, 0.1 m
Radar Cross Section
Small (<0.1 m²)

Expand to show TLE details & history
Last TLE update: 18 hours ago

TLE from 18 hours ago
0 THOR ABLESTAR DEB
1 00351U 61015DR  25305.43641474  .00012330  00000-0  16009-2 0  9997
2 00351  66.7445  14.2323 0019992 155.1301 205.0792 14.80827737343949
Epoch: 2025-11-01T10:28Z
TLE epoch observation values (Epoch: 2025-11-01T10:28:26.233Z)
Latitude
0.00002°
Longitude
176.15649°
Altitude
641.563 km
Speed
7.531 km/s
True Right ascension
00h 56m 55s
True Declination
0° 00' 00"
Sunlit
Object was in full shadow at epoch
Visualization orbit readout
Latitude
Unknown
Longitude
Unknown
Altitude
Unknown
Speed
Unknown
Apparent Right ascension
Unknown
Apparent Declination
Unknown
Sunlit
N/A
Visualization observer readout
Local Sidereal Time
00:07:02
Azimuth
Unknown
Elevation
Unknown
Doppler factor
Unknown
Orbital elements
Apogee altitude
639.044 km
Perigee altitude
611.043 km
Semi-major axis
7,003.181 km
Eccentricity
0.002
Inclination
66.7445°
RAAN
14.2323°
Arg. of periapsis
155.1301°
True anomaly
204.98231°
Mean anomaly
205.0792°
Eccentric anomaly
205.03074°
Mean motion
3.7034 °/min
Orbital period
97.21 mins
BSTAR
0.0016009
Loading maneuver chart data...
Computing Atmospheric mass density...

Documentation

Showing up to 5 results
|